owner,sensor,date,latitude,longitude,air_pressure(mBar),qcFlag 
COMPS,ioos:station:USF.COMPS:C13:1,2017-02-01T00:05:00Z,26.0630,-83.0730,1020.94,1111122 
COMPS,ioos:station:USF.COMPS:C13:1,2017-02-01T00:35:00Z,26.0630,-83.0730,1021.22,1111122 
COMPS,ioos:station:USF.COMPS:C13:1,2017-02-01T01:05:00Z,26.0630,-83.0730,1021.16,1111122 
COMPS,ioos:station:USF.COMPS:C13:1,2017-02-01T01:35:00Z,26.0630,-83.0730,1021.18,1111122 
COMPS,ioos:station:USF.COMPS:C13:1,2017-02-01T02:05:00Z,26.0630,-83.0730,1021.25,1111122 
COMPS,ioos:station:USF.COMPS:C13:1,2017-02-01T02:35:00Z,26.0630,-83.0730,1021.4,1111122 
COMPS,ioos:station:USF.COMPS:C13:1,2017-02-01T03:05:00Z,26.0630,-83.0730,1021.52,1111122 
COMPS,ioos:station:USF.COMPS:C13:1,2017-02-01T03:35:00Z,26.0630,-83.0730,1021.54,1111122 
COMPS,ioos:station:USF.COMPS:C13:1,2017-02-01T04:05:00Z,26.0630,-83.0730,1021.32,1111122 
COMPS,ioos:station:USF.COMPS:C13:1,2017-02-01T04:35:00Z,26.0630,-83.0730,1021.14,1111122 
COMPS,ioos:station:USF.COMPS:C13:1,2017-02-01T06:05:00Z,26.0630,-83.0730,1020.6,1111122 
COMPS,ioos:station:USF.COMPS:C13:1,2017-02-01T06:35:00Z,26.0630,-83.0730,1020.68,1111122 
COMPS,ioos:station:USF.COMPS:C13:1,2017-02-01T07:05:00Z,26.0630,-83.0730,1020.36,1111122 
COMPS,ioos:station:USF.COMPS:C13:1,2017-02-01T07:35:00Z,26.0630,-83.0730,1020.14,1111122 
COMPS,ioos:station:USF.COMPS:C13:1,2017-02-01T08:05:00Z,26.0630,-83.0730,1019.99,1111122 
COMPS,ioos:station:USF.COMPS:C13:1,2017-02-01T08:35:00Z,26.0630,-83.0730,1019.87,1111122 
COMPS,ioos:station:USF.COMPS:C13:1,2017-02-01T09:05:00Z,26.0630,-83.0730,1019.81,1111122 
COMPS,ioos:station:USF.COMPS:C13:1,2017-02-01T09:35:00Z,26.0630,-83.0730,1019.49,1111122 
COMPS,ioos:station:USF.COMPS:C13:1,2017-02-01T10:05:00Z,26.0630,-83.0730,1019.46,1111122 
COMPS,ioos:station:USF.COMPS:C13:1,2017-02-01T10:35:00Z,26.0630,-83.0730,1019.52,1111122 
COMPS,ioos:station:USF.COMPS:C13:1,2017-02-01T11:05:00Z,26.0630,-83.0730,1019.96,1111122 
COMPS,ioos:station:USF.COMPS:C13:1,2017-02-01T11:35:00Z,26.0630,-83.0730,1020.21,1111122 
COMPS,ioos:station:USF.COMPS:C13:1,2017-02-01T13:05:00Z,26.0630,-83.0730,1020.75,1111122 
COMPS,ioos:station:USF.COMPS:C13:1,2017-02-01T13:35:00Z,26.0630,-83.0730,1021.01,1111122 
COMPS,ioos:station:USF.COMPS:C13:1,2017-02-01T14:05:00Z,26.0630,-83.0730,1021.63,1111122 
COMPS,ioos:station:USF.COMPS:C13:1,2017-02-01T14:35:00Z,26.0630,-83.0730,1021.99,1111122 
COMPS,ioos:station:USF.COMPS:C13:1,2017-02-01T15:05:00Z,26.0630,-83.0730,1021.99,1111122 
COMPS,ioos:station:USF.COMPS:C13:1,2017-02-01T15:35:00Z,26.0630,-83.0730,1021.99,1111122 
COMPS,ioos:station:USF.COMPS:C13:1,2017-02-01T16:05:00Z,26.0630,-83.0730,1021.89,1111122 
COMPS,ioos:station:USF.COMPS:C13:1,2017-02-01T16:35:00Z,26.0630,-83.0730,1021.39,1111122 
COMPS,ioos:station:USF.COMPS:C13:1,2017-02-01T17:05:00Z,26.0630,-83.0730,1020.91,1111122 
COMPS,ioos:station:USF.COMPS:C13:1,2017-02-01T17:35:00Z,26.0630,-83.0730,1020.29,1111122 
COMPS,ioos:station:USF.COMPS:C13:1,2017-02-01T19:05:00Z,26.0630,-83.0730,1018.95,1111122 
COMPS,ioos:station:USF.COMPS:C13:1,2017-02-01T19:35:00Z,26.0630,-83.0730,1019.01,1111122 
COMPS,ioos:station:USF.COMPS:C13:1,2017-02-01T22:05:00Z,26.0630,-83.0730,1019.16,1111122 
COMPS,ioos:station:USF.COMPS:C13:1,2017-02-01T22:35:00Z,26.0630,-83.0730,1019.25,1111122 
COMPS,ioos:station:USF.COMPS:C13:1,2017-02-01T23:05:00Z,26.0630,-83.0730,1019.6,1111122 
COMPS,ioos:station:USF.COMPS:C13:1,2017-02-01T23:35:00Z,26.0630,-83.0730,1019.85,1111122 
COMPS,ioos:station:USF.COMPS:C13:1,2017-02-02T02:05:00Z,26.0630,-83.0730,1020.56,1111122 
COMPS,ioos:station:USF.COMPS:C13:1,2017-02-02T02:35:00Z,26.0630,-83.0730,1020.5,1111122 
COMPS,ioos:station:USF.COMPS:C13:1,2017-02-02T03:05:00Z,26.0630,-83.0730,1020.35,1111122 
COMPS,ioos:station:USF.COMPS:C13:1,2017-02-02T03:35:00Z,26.0630,-83.0730,1020.32,1111122 
COMPS,ioos:station:USF.COMPS:C13:1,2017-02-02T04:05:00Z,26.0630,-83.0730,1020.43,1111122 
COMPS,ioos:station:USF.COMPS:C13:1,2017-02-02T04:35:00Z,26.0630,-83.0730,1020.28,1111122 
COMPS,ioos:station:USF.COMPS:C13:1,2017-02-02T05:05:00Z,26.0630,-83.0730,1020.28,1111122 
COMPS,ioos:station:USF.COMPS:C13:1,2017-02-02T05:35:00Z,26.0630,-83.0730,1019.94,1111122 
COMPS,ioos:station:USF.COMPS:C13:1,2017-02-02T06:05:00Z,26.0630,-83.0730,1019.79,1111122 
COMPS,ioos:station:USF.COMPS:C13:1,2017-02-02T06:35:00Z,26.0630,-83.0730,1019.49,1111122 
COMPS,ioos:station:USF.COMPS:C13:1,2017-02-02T07:05:00Z,26.0630,-83.0730,1019.26,1111122 
COMPS,ioos:station:USF.COMPS:C13:1,2017-02-02T07:35:00Z,26.0630,-83.0730,1019.13,1111122 
COMPS,ioos:station:USF.COMPS:C13:1,2017-02-02T08:05:00Z,26.0630,-83.0730,1018.99,1111122 
COMPS,ioos:station:USF.COMPS:C13:1,2017-02-02T08:35:00Z,26.0630,-83.0730,1018.98,1111122 
COMPS,ioos:station:USF.COMPS:C13:1,2017-02-02T09:05:00Z,26.0630,-83.0730,1019.11,1111122 
COMPS,ioos:station:USF.COMPS:C13:1,2017-02-02T09:35:00Z,26.0630,-83.0730,1019.4,1111122 
COMPS,ioos:station:USF.COMPS:C13:1,2017-02-02T10:05:00Z,26.0630,-83.0730,1019.51,1111122 
COMPS,ioos:station:USF.COMPS:C13:1,2017-02-02T10:35:00Z,26.0630,-83.0730,1019.68,1111122 
COMPS,ioos:station:USF.COMPS:C13:1,2017-02-02T11:05:00Z,26.0630,-83.0730,1019.88,1111122 
COMPS,ioos:station:USF.COMPS:C13:1,2017-02-02T11:35:00Z,26.0630,-83.0730,1019.93,1111122 
COMPS,ioos:station:USF.COMPS:C13:1,2017-02-02T12:05:00Z,26.0630,-83.0730,1020.31,1111122 
COMPS,ioos:station:USF.COMPS:C13:1,2017-02-02T12:35:00Z,26.0630,-83.0730,1020.75,1111122 
COMPS,ioos:station:USF.COMPS:C13:1,2017-02-02T13:05:00Z,26.0630,-83.0730,1021.13,1111122 
COMPS,ioos:station:USF.COMPS:C13:1,2017-02-02T13:35:00Z,26.0630,-83.0730,1021.17,1111122 
COMPS,ioos:station:USF.COMPS:C13:1,2017-02-02T14:05:00Z,26.0630,-83.0730,1021.48,1111122 
COMPS,ioos:station:USF.COMPS:C13:1,2017-02-02T14:35:00Z,26.0630,-83.0730,1021.62,1111122 
COMPS,ioos:station:USF.COMPS:C13:1,2017-02-02T15:05:00Z,26.0630,-83.0730,1021.93,1111122 
COMPS,ioos:station:USF.COMPS:C13:1,2017-02-02T15:35:00Z,26.0630,-83.0730,1021.89,1111122 
COMPS,ioos:station:USF.COMPS:C13:1,2017-02-02T16:05:00Z,26.0630,-83.0730,1021.86,1111122 
COMPS,ioos:station:USF.COMPS:C13:1,2017-02-02T16:35:00Z,26.0630,-83.0730,1021.5,1111122 
COMPS,ioos:station:USF.COMPS:C13:1,2017-02-02T17:05:00Z,26.0630,-83.0730,1021.09,1111122 
COMPS,ioos:station:USF.COMPS:C13:1,2017-02-02T17:35:00Z,26.0630,-83.0730,1020.84,1111122 
COMPS,ioos:station:USF.COMPS:C13:1,2017-02-02T18:05:00Z,26.0630,-83.0730,1020.29,1111122 
COMPS,ioos:station:USF.COMPS:C13:1,2017-02-02T18:35:00Z,26.0630,-83.0730,1019.65,1111122 
COMPS,ioos:station:USF.COMPS:C13:1,2017-02-02T19:05:00Z,26.0630,-83.0730,1019.12,1111122 
COMPS,ioos:station:USF.COMPS:C13:1,2017-02-02T19:35:00Z,26.0630,-83.0730,1018.87,1111122 
COMPS,ioos:station:USF.COMPS:C13:1,2017-02-02T20:05:00Z,26.0630,-83.0730,1019.05,1111122 
COMPS,ioos:station:USF.COMPS:C13:1,2017-02-02T20:35:00Z,26.0630,-83.0730,1019.19,1111122 
COMPS,ioos:station:USF.COMPS:C13:1,2017-02-02T21:05:00Z,26.0630,-83.0730,1019.17,1111122 
COMPS,ioos:station:USF.COMPS:C13:1,2017-02-02T21:35:00Z,26.0630,-83.0730,1019.31,1111122 
COMPS,ioos:station:USF.COMPS:C13:1,2017-02-02T22:05:00Z,26.0630,-83.0730,1019.51,1111122 
COMPS,ioos:station:USF.COMPS:C13:1,2017-02-02T22:35:00Z,26.0630,-83.0730,1019.58,1111122 
COMPS,ioos:station:USF.COMPS:C13:1,2017-02-02T23:05:00Z,26.0630,-83.0730,1019.72,1111122 
COMPS,ioos:station:USF.COMPS:C13:1,2017-02-02T23:35:00Z,26.0630,-83.0730,1020.0,1111122 
COMPS,ioos:station:USF.COMPS:C13:1,2017-02-03T00:05:00Z,26.0630,-83.0730,1020.24,1111122 
COMPS,ioos:station:USF.COMPS:C13:1,2017-02-03T00:35:00Z,26.0630,-83.0730,1020.33,1111122 
COMPS,ioos:station:USF.COMPS:C13:1,2017-02-03T01:05:00Z,26.0630,-83.0730,1020.22,1111122 
COMPS,ioos:station:USF.COMPS:C13:1,2017-02-03T01:35:00Z,26.0630,-83.0730,1020.29,1111122 
COMPS,ioos:station:USF.COMPS:C13:1,2017-02-03T02:05:00Z,26.0630,-83.0730,1020.32,1111122 
COMPS,ioos:station:USF.COMPS:C13:1,2017-02-03T02:35:00Z,26.0630,-83.0730,1020.4,1111122 
COMPS,ioos:station:USF.COMPS:C13:1,2017-02-03T03:05:00Z,26.0630,-83.0730,1020.32,1111122 
COMPS,ioos:station:USF.COMPS:C13:1,2017-02-03T03:35:00Z,26.0630,-83.0730,1020.33,1111122 
COMPS,ioos:station:USF.COMPS:C13:1,2017-02-03T04:05:00Z,26.0630,-83.0730,1020.35,1111122 
COMPS,ioos:station:USF.COMPS:C13:1,2017-02-03T04:35:00Z,26.0630,-83.0730,1020.31,1111122 
COMPS,ioos:station:USF.COMPS:C13:1,2017-02-03T05:05:00Z,26.0630,-83.0730,1020.0,1111122 
COMPS,ioos:station:USF.COMPS:C13:1,2017-02-03T05:35:00Z,26.0630,-83.0730,1019.71,1111122 
COMPS,ioos:station:USF.COMPS:C13:1,2017-02-03T06:05:00Z,26.0630,-83.0730,1019.51,1111122 
COMPS,ioos:station:USF.COMPS:C13:1,2017-02-03T06:35:00Z,26.0630,-83.0730,1019.55,1111122 
COMPS,ioos:station:USF.COMPS:C13:1,2017-02-03T07:05:00Z,26.0630,-83.0730,1019.4,1111122 
COMPS,ioos:station:USF.COMPS:C13:1,2017-02-03T07:35:00Z,26.0630,-83.0730,1019.13,1111122 
COMPS,ioos:station:USF.COMPS:C13:1,2017-02-03T08:05:00Z,26.0630,-83.0730,1018.91,1111122 
COMPS,ioos:station:USF.COMPS:C13:1,2017-02-03T08:35:00Z,26.0630,-83.0730,1018.72,1111122 
COMPS,ioos:station:USF.COMPS:C13:1,2017-02-03T09:05:00Z,26.0630,-83.0730,1018.72,1111122 
COMPS,ioos:station:USF.COMPS:C13:1,2017-02-03T09:35:00Z,26.0630,-83.0730,1018.86,1111122 
COMPS,ioos:station:USF.COMPS:C13:1,2017-02-03T10:05:00Z,26.0630,-83.0730,1019.24,1111122 
COMPS,ioos:station:USF.COMPS:C13:1,2017-02-03T10:35:00Z,26.0630,-83.0730,1019.52,1111122 
COMPS,ioos:station:USF.COMPS:C13:1,2017-02-03T11:05:00Z,26.0630,-83.0730,1019.94,1111122 
COMPS,ioos:station:USF.COMPS:C13:1,2017-02-03T11:35:00Z,26.0630,-83.0730,1020.2,1111122 
COMPS,ioos:station:USF.COMPS:C13:1,2017-02-03T12:05:00Z,26.0630,-83.0730,1020.17,1111122 
COMPS,ioos:station:USF.COMPS:C13:1,2017-02-03T12:35:00Z,26.0630,-83.0730,1020.36,1111122 
COMPS,ioos:station:USF.COMPS:C13:1,2017-02-03T13:05:00Z,26.0630,-83.0730,1020.76,1111122 
COMPS,ioos:station:USF.COMPS:C13:1,2017-02-03T13:35:00Z,26.0630,-83.0730,1021.12,1111122 
COMPS,ioos:station:USF.COMPS:C13:1,2017-02-03T14:05:00Z,26.0630,-83.0730,1021.31,1111122 
COMPS,ioos:station:USF.COMPS:C13:1,2017-02-03T14:35:00Z,26.0630,-83.0730,1021.54,1111122 
COMPS,ioos:station:USF.COMPS:C13:1,2017-02-03T15:05:00Z,26.0630,-83.0730,1021.54,1111122 
COMPS,ioos:station:USF.COMPS:C13:1,2017-02-03T15:35:00Z,26.0630,-83.0730,1021.58,1111122 
COMPS,ioos:station:USF.COMPS:C13:1,2017-02-03T16:05:00Z,26.0630,-83.0730,1021.59,1111122 
COMPS,ioos:station:USF.COMPS:C13:1,2017-02-03T16:35:00Z,26.0630,-83.0730,1021.28,1111122 
COMPS,ioos:station:USF.COMPS:C13:1,2017-02-03T17:05:00Z,26.0630,-83.0730,1020.98,1111122 
COMPS,ioos:station:USF.COMPS:C13:1,2017-02-03T17:35:00Z,26.0630,-83.0730,1020.37,1111122 
COMPS,ioos:station:USF.COMPS:C13:1,2017-02-03T18:05:00Z,26.0630,-83.0730,1019.9,1111122 
COMPS,ioos:station:USF.COMPS:C13:1,2017-02-03T18:35:00Z,26.0630,-83.0730,1019.76,1111122 
COMPS,ioos:station:USF.COMPS:C13:1,2017-02-03T19:05:00Z,26.0630,-83.0730,1019.44,1111122 
COMPS,ioos:station:USF.COMPS:C13:1,2017-02-03T19:35:00Z,26.0630,-83.0730,1019.08,1111122 
COMPS,ioos:station:USF.COMPS:C13:1,2017-02-03T20:05:00Z,26.0630,-83.0730,1018.97,1111122 
COMPS,ioos:station:USF.COMPS:C13:1,2017-02-03T20:35:00Z,26.0630,-83.0730,1018.91,1111122 
COMPS,ioos:station:USF.COMPS:C13:1,2017-02-03T21:05:00Z,26.0630,-83.0730,1018.96,1111122 
COMPS,ioos:station:USF.COMPS:C13:1,2017-02-03T21:35:00Z,26.0630,-83.0730,1018.94,1111122 
COMPS,ioos:station:USF.COMPS:C13:1,2017-02-03T22:05:00Z,26.0630,-83.0730,1019.08,1111122 
COMPS,ioos:station:USF.COMPS:C13:1,2017-02-03T22:35:00Z,26.0630,-83.0730,1019.15,1111122 
COMPS,ioos:station:USF.COMPS:C13:1,2017-02-03T23:05:00Z,26.0630,-83.0730,1019.22,1111122 
COMPS,ioos:station:USF.COMPS:C13:1,2017-02-03T23:35:00Z,26.0630,-83.0730,1019.6,1111122 
COMPS,ioos:station:USF.COMPS:C13:1,2017-02-04T00:05:00Z,26.0630,-83.0730,1019.93,1111122 
COMPS,ioos:station:USF.COMPS:C13:1,2017-02-04T00:35:00Z,26.0630,-83.0730,1020.21,1111122 
COMPS,ioos:station:USF.COMPS:C13:1,2017-02-04T01:05:00Z,26.0630,-83.0730,1020.35,1111122 
COMPS,ioos:station:USF.COMPS:C13:1,2017-02-04T01:35:00Z,26.0630,-83.0730,1020.57,1111122 
COMPS,ioos:station:USF.COMPS:C13:1,2017-02-04T02:05:00Z,26.0630,-83.0730,1020.76,1111122 
COMPS,ioos:station:USF.COMPS:C13:1,2017-02-04T02:35:00Z,26.0630,-83.0730,1020.83,1111122 
COMPS,ioos:station:USF.COMPS:C13:1,2017-02-04T03:05:00Z,26.0630,-83.0730,1020.79,1111122 
COMPS,ioos:station:USF.COMPS:C13:1,2017-02-04T03:35:00Z,26.0630,-83.0730,1021.01,1111122 
COMPS,ioos:station:USF.COMPS:C13:1,2017-02-04T04:05:00Z,26.0630,-83.0730,1020.95,1111122 
COMPS,ioos:station:USF.COMPS:C13:1,2017-02-04T04:35:00Z,26.0630,-83.0730,1020.8,1111122 
COMPS,ioos:station:USF.COMPS:C13:1,2017-02-04T05:05:00Z,26.0630,-83.0730,1020.48,1111122 
COMPS,ioos:station:USF.COMPS:C13:1,2017-02-04T05:35:00Z,26.0630,-83.0730,1020.33,1111122 
COMPS,ioos:station:USF.COMPS:C13:1,2017-02-04T06:05:00Z,26.0630,-83.0730,1020.06,1111122 
COMPS,ioos:station:USF.COMPS:C13:1,2017-02-04T06:35:00Z,26.0630,-83.0730,1019.94,1111122 
COMPS,ioos:station:USF.COMPS:C13:1,2017-02-04T07:05:00Z,26.0630,-83.0730,1019.67,1111122 
COMPS,ioos:station:USF.COMPS:C13:1,2017-02-04T07:35:00Z,26.0630,-83.0730,1019.53,1111122 
COMPS,ioos:station:USF.COMPS:C13:1,2017-02-04T08:05:00Z,26.0630,-83.0730,1019.43,1111122 
COMPS,ioos:station:USF.COMPS:C13:1,2017-02-04T08:35:00Z,26.0630,-83.0730,1019.52,1111122 
COMPS,ioos:station:USF.COMPS:C13:1,2017-02-04T09:05:00Z,26.0630,-83.0730,1019.45,1111122 
COMPS,ioos:station:USF.COMPS:C13:1,2017-02-04T09:35:00Z,26.0630,-83.0730,1019.4,1111122 
COMPS,ioos:station:USF.COMPS:C13:1,2017-02-04T10:05:00Z,26.0630,-83.0730,1019.6,1111122 
COMPS,ioos:station:USF.COMPS:C13:1,2017-02-04T10:35:00Z,26.0630,-83.0730,1019.94,1111122 
COMPS,ioos:station:USF.COMPS:C13:1,2017-02-04T11:05:00Z,26.0630,-83.0730,1020.22,1111122 
COMPS,ioos:station:USF.COMPS:C13:1,2017-02-04T11:35:00Z,26.0630,-83.0730,1020.48,1111122 
COMPS,ioos:station:USF.COMPS:C13:1,2017-02-04T12:05:00Z,26.0630,-83.0730,1020.88,1111122 
COMPS,ioos:station:USF.COMPS:C13:1,2017-02-04T12:35:00Z,26.0630,-83.0730,1020.97,1111122 
COMPS,ioos:station:USF.COMPS:C13:1,2017-02-04T13:05:00Z,26.0630,-83.0730,1021.24,1111122 
COMPS,ioos:station:USF.COMPS:C13:1,2017-02-04T13:35:00Z,26.0630,-83.0730,1021.66,1111122 
COMPS,ioos:station:USF.COMPS:C13:1,2017-02-04T14:05:00Z,26.0630,-83.0730,1021.88,1111122 
COMPS,ioos:station:USF.COMPS:C13:1,2017-02-04T14:35:00Z,26.0630,-83.0730,1022.21,1111122 
COMPS,ioos:station:USF.COMPS:C13:1,2017-02-04T15:05:00Z,26.0630,-83.0730,1022.4,1111122 
COMPS,ioos:station:USF.COMPS:C13:1,2017-02-04T15:35:00Z,26.0630,-83.0730,1022.6,1111122 
COMPS,ioos:station:USF.COMPS:C13:1,2017-02-04T16:05:00Z,26.0630,-83.0730,1022.55,1111122 
COMPS,ioos:station:USF.COMPS:C13:1,2017-02-04T16:35:00Z,26.0630,-83.0730,1022.25,1111122 
COMPS,ioos:station:USF.COMPS:C13:1,2017-02-04T17:05:00Z,26.0630,-83.0730,1021.83,1111122 
COMPS,ioos:station:USF.COMPS:C13:1,2017-02-04T17:35:00Z,26.0630,-83.0730,1021.39,1111122 
COMPS,ioos:station:USF.COMPS:C13:1,2017-02-04T18:05:00Z,26.0630,-83.0730,1021.02,1111122 
COMPS,ioos:station:USF.COMPS:C13:1,2017-02-04T18:35:00Z,26.0630,-83.0730,1020.67,1111122 
COMPS,ioos:station:USF.COMPS:C13:1,2017-02-04T19:05:00Z,26.0630,-83.0730,1020.28,1111122 
COMPS,ioos:station:USF.COMPS:C13:1,2017-02-04T19:35:00Z,26.0630,-83.0730,1019.85,1111122 
COMPS,ioos:station:USF.COMPS:C13:1,2017-02-04T20:05:00Z,26.0630,-83.0730,1019.67,1111122 
COMPS,ioos:station:USF.COMPS:C13:1,2017-02-04T20:35:00Z,26.0630,-83.0730,1019.43,1111122 
COMPS,ioos:station:USF.COMPS:C13:1,2017-02-04T21:05:00Z,26.0630,-83.0730,1019.5,1111122 
COMPS,ioos:station:USF.COMPS:C13:1,2017-02-04T21:35:00Z,26.0630,-83.0730,1019.55,1111122 
COMPS,ioos:station:USF.COMPS:C13:1,2017-02-04T22:05:00Z,26.0630,-83.0730,1019.63,1111122 
COMPS,ioos:station:USF.COMPS:C13:1,2017-02-04T22:35:00Z,26.0630,-83.0730,1019.74,1111122 
COMPS,ioos:station:USF.COMPS:C13:1,2017-02-04T23:05:00Z,26.0630,-83.0730,1019.79,1111122 
COMPS,ioos:station:USF.COMPS:C13:1,2017-02-04T23:35:00Z,26.0630,-83.0730,1019.91,1111122 
COMPS,ioos:station:USF.COMPS:C13:1,2017-02-05T00:05:00Z,26.0630,-83.0730,1020.02,1111122 
COMPS,ioos:station:USF.COMPS:C13:1,2017-02-05T00:35:00Z,26.0630,-83.0730,1020.1,1111122 
COMPS,ioos:station:USF.COMPS:C13:1,2017-02-05T01:05:00Z,26.0630,-83.0730,1020.3,1111122 
COMPS,ioos:station:USF.COMPS:C13:1,2017-02-05T01:35:00Z,26.0630,-83.0730,1020.33,1111122 
COMPS,ioos:station:USF.COMPS:C13:1,2017-02-05T02:05:00Z,26.0630,-83.0730,1020.47,1111122 
COMPS,ioos:station:USF.COMPS:C13:1,2017-02-05T02:35:00Z,26.0630,-83.0730,1020.54,1111122 
COMPS,ioos:station:USF.COMPS:C13:1,2017-02-05T03:05:00Z,26.0630,-83.0730,1020.67,1111122 
COMPS,ioos:station:USF.COMPS:C13:1,2017-02-05T03:35:00Z,26.0630,-83.0730,1020.72,1111122 
COMPS,ioos:station:USF.COMPS:C13:1,2017-02-05T04:05:00Z,26.0630,-83.0730,1020.45,1111122 
COMPS,ioos:station:USF.COMPS:C13:1,2017-02-05T04:35:00Z,26.0630,-83.0730,1020.29,1111122 
COMPS,ioos:station:USF.COMPS:C13:1,2017-02-05T05:05:00Z,26.0630,-83.0730,1019.97,1111122 
COMPS,ioos:station:USF.COMPS:C13:1,2017-02-05T05:35:00Z,26.0630,-83.0730,1019.8,1111122 
COMPS,ioos:station:USF.COMPS:C13:1,2017-02-05T06:05:00Z,26.0630,-83.0730,1019.55,1111122 
COMPS,ioos:station:USF.COMPS:C13:1,2017-02-05T06:35:00Z,26.0630,-83.0730,1019.4,1111122 
COMPS,ioos:station:USF.COMPS:C13:1,2017-02-05T07:05:00Z,26.0630,-83.0730,1019.06,1111122 
COMPS,ioos:station:USF.COMPS:C13:1,2017-02-05T07:35:00Z,26.0630,-83.0730,1018.87,1111122 
COMPS,ioos:station:USF.COMPS:C13:1,2017-02-05T08:05:00Z,26.0630,-83.0730,1018.86,1111122 
COMPS,ioos:station:USF.COMPS:C13:1,2017-02-05T08:35:00Z,26.0630,-83.0730,1018.74,1111122 
COMPS,ioos:station:USF.COMPS:C13:1,2017-02-05T09:05:00Z,26.0630,-83.0730,1018.86,1111122 
COMPS,ioos:station:USF.COMPS:C13:1,2017-02-05T09:35:00Z,26.0630,-83.0730,1018.86,1111122 
COMPS,ioos:station:USF.COMPS:C13:1,2017-02-05T10:05:00Z,26.0630,-83.0730,1018.86,1111122 
COMPS,ioos:station:USF.COMPS:C13:1,2017-02-05T10:35:00Z,26.0630,-83.0730,1018.98,1111122 
COMPS,ioos:station:USF.COMPS:C13:1,2017-02-05T11:05:00Z,26.0630,-83.0730,1019.4,1111122 
COMPS,ioos:station:USF.COMPS:C13:1,2017-02-05T11:35:00Z,26.0630,-83.0730,1019.85,1111122 
COMPS,ioos:station:USF.COMPS:C13:1,2017-02-05T12:05:00Z,26.0630,-83.0730,1019.95,1111122 
COMPS,ioos:station:USF.COMPS:C13:1,2017-02-05T12:35:00Z,26.0630,-83.0730,1020.08,1111122 
COMPS,ioos:station:USF.COMPS:C13:1,2017-02-05T13:05:00Z,26.0630,-83.0730,1020.22,1111122 
COMPS,ioos:station:USF.COMPS:C13:1,2017-02-05T13:35:00Z,26.0630,-83.0730,1020.42,1111122 
COMPS,ioos:station:USF.COMPS:C13:1,2017-02-05T14:05:00Z,26.0630,-83.0730,1020.6,1111122 
COMPS,ioos:station:USF.COMPS:C13:1,2017-02-05T14:35:00Z,26.0630,-83.0730,1020.97,1111122 
COMPS,ioos:station:USF.COMPS:C13:1,2017-02-05T15:05:00Z,26.0630,-83.0730,1021.21,1111122 
COMPS,ioos:station:USF.COMPS:C13:1,2017-02-05T15:35:00Z,26.0630,-83.0730,1021.43,1111122 
COMPS,ioos:station:USF.COMPS:C13:1,2017-02-05T16:05:00Z,26.0630,-83.0730,1021.3,1111122 
COMPS,ioos:station:USF.COMPS:C13:1,2017-02-05T16:35:00Z,26.0630,-83.0730,1021.21,1111122 
COMPS,ioos:station:USF.COMPS:C13:1,2017-02-05T17:05:00Z,26.0630,-83.0730,1020.92,1111122 
COMPS,ioos:station:USF.COMPS:C13:1,2017-02-05T17:35:00Z,26.0630,-83.0730,1020.5,1111122 
COMPS,ioos:station:USF.COMPS:C13:1,2017-02-05T18:05:00Z,26.0630,-83.0730,1019.92,1111122 
COMPS,ioos:station:USF.COMPS:C13:1,2017-02-05T18:35:00Z,26.0630,-83.0730,1019.36,1111122 
COMPS,ioos:station:USF.COMPS:C13:1,2017-02-05T19:05:00Z,26.0630,-83.0730,1018.79,1111122 
COMPS,ioos:station:USF.COMPS:C13:1,2017-02-05T19:35:00Z,26.0630,-83.0730,1018.5,1111122 
COMPS,ioos:station:USF.COMPS:C13:1,2017-02-05T20:05:00Z,26.0630,-83.0730,1018.19,1111122 
COMPS,ioos:station:USF.COMPS:C13:1,2017-02-05T20:35:00Z,26.0630,-83.0730,1017.86,1111122 
COMPS,ioos:station:USF.COMPS:C13:1,2017-02-05T21:05:00Z,26.0630,-83.0730,1017.85,1111122 
COMPS,ioos:station:USF.COMPS:C13:1,2017-02-05T21:35:00Z,26.0630,-83.0730,1017.88,1111122 
COMPS,ioos:station:USF.COMPS:C13:1,2017-02-05T22:05:00Z,26.0630,-83.0730,1018.29,1111122 
COMPS,ioos:station:USF.COMPS:C13:1,2017-02-05T22:35:00Z,26.0630,-83.0730,1018.49,1111122 
COMPS,ioos:station:USF.COMPS:C13:1,2017-02-05T23:05:00Z,26.0630,-83.0730,1018.89,1111122 
COMPS,ioos:station:USF.COMPS:C13:1,2017-02-05T23:35:00Z,26.0630,-83.0730,1019.2,1111122 
COMPS,ioos:station:USF.COMPS:C13:1,2017-02-06T00:05:00Z,26.0630,-83.0730,1019.4,1111122 
COMPS,ioos:station:USF.COMPS:C13:1,2017-02-06T00:35:00Z,26.0630,-83.0730,1019.62,1111122 
COMPS,ioos:station:USF.COMPS:C13:1,2017-02-06T01:05:00Z,26.0630,-83.0730,1019.76,1111122 
COMPS,ioos:station:USF.COMPS:C13:1,2017-02-06T01:35:00Z,26.0630,-83.0730,1019.77,1111122 
COMPS,ioos:station:USF.COMPS:C13:1,2017-02-06T02:05:00Z,26.0630,-83.0730,1019.86,1111122 
COMPS,ioos:station:USF.COMPS:C13:1,2017-02-06T02:35:00Z,26.0630,-83.0730,1019.83,1111122 
COMPS,ioos:station:USF.COMPS:C13:1,2017-02-06T03:05:00Z,26.0630,-83.0730,1019.77,1111122 
COMPS,ioos:station:USF.COMPS:C13:1,2017-02-06T03:35:00Z,26.0630,-83.0730,1019.87,1111122 
COMPS,ioos:station:USF.COMPS:C13:1,2017-02-06T04:05:00Z,26.0630,-83.0730,1019.86,1111122 
COMPS,ioos:station:USF.COMPS:C13:1,2017-02-06T04:35:00Z,26.0630,-83.0730,1019.47,1111122 
COMPS,ioos:station:USF.COMPS:C13:1,2017-02-06T05:05:00Z,26.0630,-83.0730,1019.2,1111122 
COMPS,ioos:station:USF.COMPS:C13:1,2017-02-06T05:35:00Z,26.0630,-83.0730,1018.86,1111122 
COMPS,ioos:station:USF.COMPS:C13:1,2017-02-06T06:05:00Z,26.0630,-83.0730,1018.8,1111122 
COMPS,ioos:station:USF.COMPS:C13:1,2017-02-06T06:35:00Z,26.0630,-83.0730,1018.72,1111122 
COMPS,ioos:station:USF.COMPS:C13:1,2017-02-06T07:05:00Z,26.0630,-83.0730,1018.47,1111122 
COMPS,ioos:station:USF.COMPS:C13:1,2017-02-06T07:35:00Z,26.0630,-83.0730,1018.26,1111122 
COMPS,ioos:station:USF.COMPS:C13:1,2017-02-06T08:05:00Z,26.0630,-83.0730,1017.97,1111122 
COMPS,ioos:station:USF.COMPS:C13:1,2017-02-06T08:35:00Z,26.0630,-83.0730,1017.96,1111122 
COMPS,ioos:station:USF.COMPS:C13:1,2017-02-06T09:05:00Z,26.0630,-83.0730,1017.98,1111122 
COMPS,ioos:station:USF.COMPS:C13:1,2017-02-06T09:35:00Z,26.0630,-83.0730,1018.06,1111122 
COMPS,ioos:station:USF.COMPS:C13:1,2017-02-06T10:05:00Z,26.0630,-83.0730,1018.37,1111122 
COMPS,ioos:station:USF.COMPS:C13:1,2017-02-06T10:35:00Z,26.0630,-83.0730,1018.58,1111122 
COMPS,ioos:station:USF.COMPS:C13:1,2017-02-06T11:05:00Z,26.0630,-83.0730,1018.86,1111122 
COMPS,ioos:station:USF.COMPS:C13:1,2017-02-06T11:35:00Z,26.0630,-83.0730,1019.24,1111122 
COMPS,ioos:station:USF.COMPS:C13:1,2017-02-06T12:05:00Z,26.0630,-83.0730,1019.39,1111122 
COMPS,ioos:station:USF.COMPS:C13:1,2017-02-06T12:35:00Z,26.0630,-83.0730,1019.53,1111122 
COMPS,ioos:station:USF.COMPS:C13:1,2017-02-06T13:05:00Z,26.0630,-83.0730,1019.78,1111122 
COMPS,ioos:station:USF.COMPS:C13:1,2017-02-06T13:35:00Z,26.0630,-83.0730,1019.87,1111122 
COMPS,ioos:station:USF.COMPS:C13:1,2017-02-06T14:05:00Z,26.0630,-83.0730,1020.04,1111122 
COMPS,ioos:station:USF.COMPS:C13:1,2017-02-06T14:35:00Z,26.0630,-83.0730,1020.28,1111122 
COMPS,ioos:station:USF.COMPS:C13:1,2017-02-06T15:05:00Z,26.0630,-83.0730,1020.58,1111122 
COMPS,ioos:station:USF.COMPS:C13:1,2017-02-06T15:35:00Z,26.0630,-83.0730,1020.7,1111122 
COMPS,ioos:station:USF.COMPS:C13:1,2017-02-06T16:05:00Z,26.0630,-83.0730,1020.56,1111122 
COMPS,ioos:station:USF.COMPS:C13:1,2017-02-06T16:35:00Z,26.0630,-83.0730,1020.34,1111122 
COMPS,ioos:station:USF.COMPS:C13:1,2017-02-06T17:05:00Z,26.0630,-83.0730,1019.87,1111122 
COMPS,ioos:station:USF.COMPS:C13:1,2017-02-06T17:35:00Z,26.0630,-83.0730,1019.35,1111122 
COMPS,ioos:station:USF.COMPS:C13:1,2017-02-06T18:05:00Z,26.0630,-83.0730,1018.9,1111122 
COMPS,ioos:station:USF.COMPS:C13:1,2017-02-06T18:35:00Z,26.0630,-83.0730,1018.47,1111122 
COMPS,ioos:station:USF.COMPS:C13:1,2017-02-06T20:05:00Z,26.0630,-83.0730,1017.76,1111122 
COMPS,ioos:station:USF.COMPS:C13:1,2017-02-06T20:35:00Z,26.0630,-83.0730,1017.53,1111122 